Simultaneous Nadir Overpasses (SNOs) Predictions

Prediction of SNOs between GOES-16 and NOAA-19 Satellite Orbit:

Table of predicted SNOs for the next 14.0 days since TLE Epoch: 1/26/2017
Index Date Time (GOES-16) GOES-16 Lat,Lon NOAA-19 Lat,Lon Distance(km) Time Diff (sec)
1 01/27/2017 09:07:14 0.04, -89.47 0.37, -90.91 163.50 80
2 01/28/2017 08:53:10 0.04, -89.48 -0.29, -88.13 154.22 80
3 01/29/2017 08:41:44 0.04, -89.49 -0.89, -85.35 471.99 80
4 01/30/2017 21:14:49 -0.05, -89.50 -0.94, -93.29 432.41 80
5 01/31/2017 21:03:25 -0.05, -89.51 -0.27, -90.52 114.30 80
6 02/01/2017 20:54:40 -0.05, -89.52 0.35, -87.73 203.86 80
7 02/04/2017 09:16:21 0.05, -89.54 0.82, -92.90 383.78 80
8 02/05/2017 09:04:56 0.05, -89.55 0.21, -90.12 65.73 80
9 02/06/2017 08:50:51 0.06, -89.56 -0.46, -87.35 252.49 80
10 02/08/2017 21:12:30 -0.07, -89.59 -0.76, -92.50 332.95 80




NCC Satellite Simultaneous Nadir Overpasses (SNOs) Prediction Service
